VJT85 KGSO-KIND

Flight info

Callsign VJT85
Flight time N/A
Altitude 40000
Route TRSHA1 BAWDS AZQ HAGAL GIIBS4
Aircraft CL60/M-SADE3FGHIJ3J4J7P2RWXY/HB1D1

Departure

Time N/A
Airport Piedmont Triad International Airport (KGSO)

Arrival

Time 2026-05-05 15:03
Airport Indianapolis International Airport (KIND)
Time Latitude Longitude Altitude Speed Heading
2026-05-05 13:57 36.57666 -80.87658 33769 ft 348 kts 295°
2026-05-05 13:57 36.58646 -80.90435 34306 ft 346 kts 295°
2026-05-05 13:57 36.59602 -80.93143 34775 ft 344 kts 296°
2026-05-05 13:57 36.60559 -80.95856 35200 ft 343 kts 296°
2026-05-05 13:58 36.61513 -80.98560 35578 ft 342 kts 296°
2026-05-05 13:58 36.62465 -81.01262 35912 ft 343 kts 296°
2026-05-05 13:58 36.63419 -81.03966 36212 ft 344 kts 296°
2026-05-05 13:58 36.64381 -81.06699 36665 ft 343 kts 296°
2026-05-05 13:59 36.66277 -81.12090 37629 ft 338 kts 296°
2026-05-05 13:59 36.67213 -81.14754 38016 ft 337 kts 296°
2026-05-05 14:00 36.69081 -81.20076 38851 ft 333 kts 297°
2026-05-05 14:00 36.69712 -81.21873 39066 ft 332 kts 297°
2026-05-05 14:00 36.70945 -81.25391 39423 ft 332 kts 297°
2026-05-05 14:00 36.71852 -81.27980 39731 ft 330 kts 298°
2026-05-05 14:01 36.72778 -81.30625 39908 ft 332 kts 297°
2026-05-05 14:01 36.73701 -81.33265 40041 ft 333 kts 298°
2026-05-05 14:01 36.75587 -81.38655 40081 ft 343 kts 297°
2026-05-05 14:02 36.77513 -81.44180 40070 ft 351 kts 297°
2026-05-05 14:02 36.79463 -81.49779 40078 ft 358 kts 297°
2026-05-05 14:03 36.81459 -81.55521 40069 ft 364 kts 298°
2026-05-05 14:03 36.83483 -81.61358 40064 ft 370 kts 297°
2026-05-05 14:04 36.85133 -81.66125 40060 ft 373 kts 297°
2026-05-05 14:04 36.87544 -81.73114 40065 ft 378 kts 296°
2026-05-05 14:05 36.89627 -81.79150 40062 ft 382 kts 296°
2026-05-05 14:05 36.91743 -81.85294 40068 ft 387 kts 296°
2026-05-05 14:06 36.93869 -81.91486 40061 ft 390 kts 297°
2026-05-05 14:06 36.95990 -81.97676 40054 ft 390 kts 297°
2026-05-05 14:07 36.98125 -82.03925 40061 ft 388 kts 297°
2026-05-05 14:07 37.00252 -82.10157 40047 ft 386 kts 296°
2026-05-05 14:08 37.02342 -82.16296 40049 ft 385 kts 296°
2026-05-05 14:08 37.04443 -82.22479 40043 ft 385 kts 297°
2026-05-05 14:09 37.06535 -82.28648 40040 ft 386 kts 297°
2026-05-05 14:09 37.08617 -82.34798 40036 ft 386 kts 296°
2026-05-05 14:10 37.10703 -82.40977 40043 ft 385 kts 296°
2026-05-05 14:10 37.12782 -82.47147 40032 ft 385 kts 297°
2026-05-05 14:11 37.14865 -82.53339 40040 ft 384 kts 297°
2026-05-05 14:11 37.16953 -82.59563 40040 ft 384 kts 296°
2026-05-05 14:12 37.19024 -82.65749 40027 ft 384 kts 295°
2026-05-05 14:12 37.21117 -82.72010 40012 ft 384 kts 295°
2026-05-05 14:13 37.22870 -82.77276 40020 ft 383 kts 296°
2026-05-05 14:13 37.25217 -82.84346 40006 ft 383 kts 296°
2026-05-05 14:14 37.27281 -82.90553 40002 ft 382 kts 295°
2026-05-05 14:14 37.29320 -82.96699 39995 ft 382 kts 295°
2026-05-05 14:15 37.31372 -83.02900 39992 ft 381 kts 296°
2026-05-05 14:15 37.33401 -83.09043 40000 ft 381 kts 295°
2026-05-05 14:16 37.35464 -83.15296 40002 ft 380 kts 295°
2026-05-05 14:16 37.37472 -83.21407 40003 ft 380 kts 295°
2026-05-05 14:17 37.39530 -83.27586 39997 ft 379 kts 297°
2026-05-05 14:17 37.41682 -83.33649 39994 ft 377 kts 296°
2026-05-05 14:18 37.43796 -83.39618 39988 ft 376 kts 296°
2026-05-05 14:18 37.45921 -83.45629 39988 ft 375 kts 296°
2026-05-05 14:19 37.48032 -83.51614 39978 ft 374 kts 297°
2026-05-05 14:19 37.50178 -83.57710 39987 ft 373 kts 296°
2026-05-05 14:20 37.52361 -83.63920 39960 ft 374 kts 297°
2026-05-05 14:20 37.54467 -83.69946 39977 ft 374 kts 296°
2026-05-05 14:21 37.56610 -83.76066 39974 ft 374 kts 296°
2026-05-05 14:21 37.58758 -83.82218 39976 ft 374 kts 296°
2026-05-05 14:22 37.60954 -83.88517 39962 ft 373 kts 296°
2026-05-05 14:22 37.63121 -83.94748 39956 ft 373 kts 296°
2026-05-05 14:23 37.65290 -84.00999 39968 ft 372 kts 295°
2026-05-05 14:23 37.67454 -84.07246 39939 ft 372 kts 295°
2026-05-05 14:24 37.69529 -84.13254 39939 ft 371 kts 296°
2026-05-05 14:24 37.71578 -84.19192 39953 ft 370 kts 295°
2026-05-05 14:25 37.73635 -84.25167 39948 ft 369 kts 295°
2026-05-05 14:25 37.75669 -84.31088 39949 ft 369 kts 295°
2026-05-05 14:26 37.77703 -84.37022 39943 ft 368 kts 295°
2026-05-05 14:26 37.79730 -84.42944 39927 ft 368 kts 295°
2026-05-05 14:27 37.81748 -84.48855 39923 ft 367 kts 296°
2026-05-05 14:27 37.83758 -84.54755 39938 ft 365 kts 295°
2026-05-05 14:28 37.85754 -84.60622 39924 ft 365 kts 295°
2026-05-05 14:28 37.87637 -84.66166 39928 ft 365 kts 295°
2026-05-05 14:29 37.89757 -84.72426 39925 ft 365 kts 295°
2026-05-05 14:29 37.91754 -84.78333 39914 ft 364 kts 295°
2026-05-05 14:30 37.93740 -84.84217 39912 ft 364 kts 294°
2026-05-05 14:30 37.95725 -84.90109 39911 ft 363 kts 293°
2026-05-05 14:31 37.97706 -84.96002 39898 ft 363 kts 293°
2026-05-05 14:31 37.99683 -85.01898 39905 ft 363 kts 294°
2026-05-05 14:32 38.01643 -85.07752 39895 ft 363 kts 294°
2026-05-05 14:32 38.03610 -85.13644 39911 ft 362 kts 293°
2026-05-05 14:33 38.05561 -85.19495 39916 ft 362 kts 294°
2026-05-05 14:33 38.07519 -85.25382 39916 ft 362 kts 294°
2026-05-05 14:34 38.08487 -85.28296 39704 ft 362 kts 294°
2026-05-05 14:34 38.09462 -85.31234 39236 ft 354 kts 293°
2026-05-05 14:34 38.10397 -85.34054 38788 ft 345 kts 294°
2026-05-05 14:34 38.11317 -85.36832 38341 ft 338 kts 293°
2026-05-05 14:35 38.12215 -85.39544 37906 ft 337 kts 292°
2026-05-05 14:35 38.13126 -85.42298 37471 ft 338 kts 292°
2026-05-05 14:35 38.14038 -85.45060 37037 ft 338 kts 292°
2026-05-05 14:35 38.14955 -85.47807 36610 ft 340 kts 292°
2026-05-05 14:36 38.16062 -85.50451 36128 ft 343 kts 299°
2026-05-05 14:36 38.17442 -85.52882 35635 ft 348 kts 304°
2026-05-05 14:36 38.19136 -85.55124 35147 ft 355 kts 311°
2026-05-05 14:36 38.21128 -85.57093 34622 ft 365 kts 318°
2026-05-05 14:37 38.23376 -85.58699 33939 ft 378 kts 325°
2026-05-05 14:37 38.25912 -85.59857 33419 ft 394 kts 335°
2026-05-05 14:37 38.28634 -85.60478 32907 ft 411 kts 342°
2026-05-05 14:37 38.31500 -85.60901 32322 ft 416 kts 343°
2026-05-05 14:38 38.34378 -85.61324 31786 ft 420 kts 343°
2026-05-05 14:38 38.37273 -85.61749 31223 ft 420 kts 344°
2026-05-05 14:38 38.40173 -85.62181 30665 ft 419 kts 344°
2026-05-05 14:38 38.43071 -85.62618 30115 ft 419 kts 345°
2026-05-05 14:39 38.45988 -85.63058 29544 ft 418 kts 345°
2026-05-05 14:39 38.48853 -85.63492 28996 ft 416 kts 345°
2026-05-05 14:39 38.51733 -85.63928 28431 ft 414 kts 346°
2026-05-05 14:39 38.54566 -85.64356 27893 ft 412 kts 346°
2026-05-05 14:40 38.57407 -85.64787 27339 ft 410 kts 346°
2026-05-05 14:40 38.60222 -85.65202 26814 ft 409 kts 346°
2026-05-05 14:40 38.63045 -85.65614 26267 ft 407 kts 346°
2026-05-05 14:40 38.65841 -85.66022 25731 ft 405 kts 347°
2026-05-05 14:41 38.68628 -85.66430 25200 ft 403 kts 347°
2026-05-05 14:41 38.71408 -85.66837 24674 ft 401 kts 347°
2026-05-05 14:41 38.73951 -85.67211 24176 ft 398 kts 348°
2026-05-05 14:41 38.76871 -85.67640 23620 ft 397 kts 348°
2026-05-05 14:42 38.79640 -85.68047 23088 ft 395 kts 348°
2026-05-05 14:42 38.82319 -85.68442 22565 ft 393 kts 348°
2026-05-05 14:42 38.85014 -85.68839 22042 ft 391 kts 348°
2026-05-05 14:42 38.87713 -85.69237 21525 ft 388 kts 348°
2026-05-05 14:43 38.90388 -85.69632 21016 ft 385 kts 348°
2026-05-05 14:43 38.93046 -85.70024 20492 ft 382 kts 348°
2026-05-05 14:43 38.95665 -85.70412 20006 ft 380 kts 348°
2026-05-05 14:43 38.98286 -85.70799 19488 ft 377 kts 348°
2026-05-05 14:44 39.00879 -85.71184 18981 ft 374 kts 348°
2026-05-05 14:44 39.03448 -85.71602 18497 ft 370 kts 347°
2026-05-05 14:44 39.05985 -85.72047 18058 ft 367 kts 347°
2026-05-05 14:44 39.08506 -85.72491 17669 ft 366 kts 347°
2026-05-05 14:45 39.11010 -85.72930 17257 ft 366 kts 347°
2026-05-05 14:45 39.13538 -85.73374 16825 ft 365 kts 347°
2026-05-05 14:45 39.15996 -85.74069 16403 ft 355 kts 334°
2026-05-05 14:45 39.18257 -85.75336 15962 ft 352 kts 330°
2026-05-05 14:46 39.20511 -85.76641 15557 ft 350 kts 330°
2026-05-05 14:46 39.22748 -85.77930 15129 ft 349 kts 329°
2026-05-05 14:46 39.24965 -85.79208 14735 ft 348 kts 329°
2026-05-05 14:46 39.27036 -85.80402 14357 ft 347 kts 329°
2026-05-05 14:47 39.29330 -85.81725 13943 ft 345 kts 329°
2026-05-05 14:47 39.31541 -85.82999 13518 ft 343 kts 329°
2026-05-05 14:47 39.33611 -85.84432 13134 ft 331 kts 318°
2026-05-05 14:47 39.35423 -85.86298 12811 ft 326 kts 314°
2026-05-05 14:48 39.37202 -85.88164 12505 ft 330 kts 314°
2026-05-05 14:48 39.38994 -85.90035 12109 ft 322 kts 315°
2026-05-05 14:48 39.40732 -85.91850 11732 ft 317 kts 315°
2026-05-05 14:48 39.42275 -85.93462 11390 ft 312 kts 315°
2026-05-05 14:49 39.44029 -85.95295 11009 ft 305 kts 315°
2026-05-05 14:49 39.45679 -85.97015 10645 ft 299 kts 315°
2026-05-05 14:49 39.47334 -85.98658 10295 ft 294 kts 316°
2026-05-05 14:49 39.48951 -86.00245 9950 ft 288 kts 316°
2026-05-05 14:50 39.50547 -86.01814 9618 ft 284 kts 316°
2026-05-05 14:50 39.52125 -86.03367 9282 ft 282 kts 316°
2026-05-05 14:50 39.53690 -86.04906 8957 ft 277 kts 316°
2026-05-05 14:50 39.55221 -86.06413 8628 ft 272 kts 316°
2026-05-05 14:51 39.56736 -86.07904 8309 ft 267 kts 316°
2026-05-05 14:51 39.58209 -86.09354 8000 ft 262 kts 316°
2026-05-05 14:51 39.59654 -86.10805 7694 ft 256 kts 312°
2026-05-05 14:51 39.60929 -86.12410 7394 ft 248 kts 307°
2026-05-05 14:52 39.62126 -86.13987 7108 ft 244 kts 308°
2026-05-05 14:52 39.63308 -86.15539 6823 ft 240 kts 307°
2026-05-05 14:52 39.64602 -86.16916 6531 ft 245 kts 323°
2026-05-05 14:52 39.66228 -86.17687 6223 ft 252 kts 345°
2026-05-05 14:53 39.67989 -86.17617 5995 ft 254 kts 10°
2026-05-05 14:53 39.69572 -86.16670 5990 ft 252 kts 35°
2026-05-05 14:53 39.70900 -86.15119 5992 ft 257 kts 44°
2026-05-05 14:53 39.72186 -86.13465 5990 ft 257 kts 44°
2026-05-05 14:54 39.73463 -86.11832 5996 ft 258 kts 44°
2026-05-05 14:54 39.74744 -86.10188 5995 ft 258 kts 44°
2026-05-05 14:54 39.76022 -86.08524 5994 ft 258 kts 45°
2026-05-05 14:54 39.77287 -86.06855 5995 ft 258 kts 45°
2026-05-05 14:55 39.78554 -86.05183 5992 ft 258 kts 45°
2026-05-05 14:55 39.79821 -86.03516 5992 ft 259 kts 45°
2026-05-05 14:55 39.81098 -86.01873 5990 ft 259 kts 39°
2026-05-05 14:55 39.82677 -86.00857 5990 ft 251 kts
2026-05-05 14:56 39.84322 -86.01105 5996 ft 225 kts 327°
2026-05-05 14:56 39.85552 -86.02162 6011 ft 197 kts 307°
2026-05-05 14:56 39.86335 -86.03488 5988 ft 177 kts 288°
2026-05-05 14:56 39.86703 -86.05036 5518 ft 181 kts 271°
2026-05-05 14:57 39.86736 -86.06567 5430 ft 160 kts 261°
2026-05-05 14:57 39.86565 -86.07986 5408 ft 161 kts 253°
2026-05-05 14:57 39.86209 -86.09434 4783 ft 176 kts 247°
2026-05-05 14:57 39.85689 -86.10850 4509 ft 167 kts 245°
2026-05-05 14:58 39.85238 -86.12202 4324 ft 162 kts 247°
2026-05-05 14:58 39.84789 -86.13558 4071 ft 158 kts 246°
2026-05-05 14:58 39.84186 -86.14732 3873 ft 156 kts 232°
2026-05-05 14:58 39.83429 -86.15748 3680 ft 156 kts 228°
2026-05-05 14:59 39.82645 -86.16743 3462 ft 158 kts 229°
2026-05-05 14:59 39.81862 -86.17744 3230 ft 154 kts 229°
2026-05-05 14:59 39.81137 -86.18665 3042 ft 133 kts 230°
2026-05-05 14:59 39.80496 -86.19479 2877 ft 128 kts 230°
2026-05-05 15:00 39.79866 -86.20292 2697 ft 122 kts 230°
2026-05-05 15:00 39.79455 -86.20821 2627 ft 124 kts 229°
2026-05-05 15:00 39.78632 -86.21879 2389 ft 124 kts 229°
2026-05-05 15:00 39.78014 -86.22668 2213 ft 125 kts 229°
2026-05-05 15:01 39.77388 -86.23463 2029 ft 125 kts 229°
2026-05-05 15:01 39.76771 -86.24255 1872 ft 125 kts 228°
2026-05-05 15:01 39.76149 -86.25048 1726 ft 124 kts 228°
2026-05-05 15:01 39.75534 -86.25836 1571 ft 124 kts 227°
2026-05-05 15:02 39.74916 -86.26630 1406 ft 124 kts 227°
2026-05-05 15:02 39.74305 -86.27420 1230 ft 125 kts 226°
2026-05-05 15:02 39.73682 -86.28213 1049 ft 125 kts 226°
2026-05-05 15:02 39.73059 -86.29011 896 ft 125 kts 226°
2026-05-05 15:03 39.72444 -86.29787 782 ft 118 kts 225°
2026-05-05 15:03 39.71925 -86.30443 763 ft 87 kts 224°
2026-05-05 15:03 39.71586 -86.30884 756 ft 46 kts 226°
2026-05-05 15:03 39.71465 -86.31044 754 ft 16 kts 254°
2026-05-05 15:04 39.71497 -86.31178 753 ft 17 kts 313°
2026-05-05 15:04 39.71594 -86.31195 753 ft 16 kts 44°
2026-05-05 15:04 39.71683 -86.31081 754 ft 19 kts 45°
2026-05-05 15:04 39.71785 -86.30951 756 ft 21 kts 45°
2026-05-05 15:05 39.72030 -86.30640 760 ft 26 kts 44°
2026-05-05 15:05 39.72170 -86.30462 763 ft 28 kts 44°
2026-05-05 15:05 39.72310 -86.30270 766 ft 28 kts 41°
2026-05-05 15:06 39.72419 -86.30140 769 ft 22 kts 43°
2026-05-05 15:06 39.72536 -86.29993 771 ft 24 kts 40°
2026-05-05 15:06 39.72660 -86.29831 774 ft 26 kts 45°
2026-05-05 15:06 39.72797 -86.29661 778 ft 28 kts 43°
2026-05-05 15:07 39.72937 -86.29476 781 ft 29 kts 40°
2026-05-05 15:07 39.73068 -86.29299 783 ft 10 kts 46°
2026-05-05 15:07 39.73130 -86.29224 785 ft 13 kts 43°
2026-05-05 15:07 39.73208 -86.29128 787 ft 16 kts 44°
2026-05-05 15:08 39.73301 -86.29016 788 ft 19 kts 44°
2026-05-05 15:08 39.73404 -86.28884 790 ft 22 kts 46°
2026-05-05 15:08 39.73496 -86.28762 791 ft 11 kts 49°
2026-05-05 15:08 39.73511 -86.28694 792 ft 7 kts 112°
2026-05-05 15:09 39.73475 -86.28635 793 ft 9 kts 120°
2026-05-05 15:09 39.73514 -86.28554 793 ft 13 kts 45°
2026-05-05 15:09 39.73528 -86.28445 795 ft 15 kts 130°
2026-05-05 15:09 39.73445 -86.28334 796 ft 18 kts 134°
2026-05-05 15:10 39.73346 -86.28213 796 ft 10 kts 115°
2026-05-05 15:10 39.73357 -86.28197 796 ft 4 kts 43°
2026-05-05 15:10 39.73370 -86.28181 797 ft 0 kts 41°